GEFSNGP_prec_meanprecacc_210.txt.gz
Total_Precipitation_Accumulation
0.38 0.40 0.40 0.37 0.33 0.33 0.40 0.46 0.66 0.89 1.23 1.57 1.63 1.80 2.00 2.00 1.84 1.67 1.64 1.64 1.53 1.46 1.39 1.30 1.27 1.21 1.15 1.04 0.94 0.86 0.81 0.79 0.83 0.88 0.91 0.88 0.84 0.78 0.73 0.70 0.67 0.68 0.69 0.64
0.35 0.33 0.36 0.39 0.38 0.34 0.38 0.48 0.68 1.00 1.42 1.62 1.71 1.77 1.91 2.01 1.90 1.79 1.80 1.87 1.89 1.87 1.78 1.62 1.48 1.39 1.27 1.11 1.00 0.93 0.91 0.89 0.90 0.90 0.86 0.84 0.80 0.76 0.73 0.69 0.66 0.63 0.63 0.61
0.43 0.30 0.48 0.72 0.57 0.49 0.53 0.62 0.80 1.12 1.34 1.43 1.56 1.73 1.79 1.84 1.95 1.95 2.05 2.18 2.22 2.17 2.05 1.85 1.73 1.63 1.50 1.31 1.16 1.10 1.05 0.99 0.94 0.88 0.79 0.74 0.68 0.69 0.71 0.68 0.63 0.59 0.56 0.59
0.52 0.56 0.98 0.91 0.55 0.53 0.68 0.81 0.85 0.91 1.01 1.23 1.46 1.59 1.63 1.74 1.96 2.08 2.11 2.07 2.09 2.04 2.01 1.89 1.78 1.65 1.48 1.31 1.23 1.14 1.05 0.97 0.89 0.81 0.75 0.74 0.73 0.73 0.70 0.66 0.60 0.60 0.60 0.61
0.68 0.93 1.03 0.98 0.65 0.64 0.84 1.07 0.87 0.91 0.96 1.13 1.22 1.40 1.70 1.76 1.90 2.09 1.97 1.87 1.94 2.00 1.98 1.92 1.81 1.60 1.46 1.33 1.18 1.11 1.01 0.86 0.76 0.71 0.67 0.65 0.66 0.66 0.64 0.62 0.60 0.57 0.55 0.56
0.85 1.13 1.32 1.21 0.69 0.54 0.87 1.56 1.15 1.07 1.10 1.10 1.19 1.55 1.69 1.59 1.55 1.64 1.68 1.74 1.88 2.01 2.07 1.99 1.87 1.57 1.41 1.27 1.07 0.92 0.77 0.67 0.65 0.65 0.59 0.55 0.54 0.56 0.57 0.58 0.57 0.52 0.50 0.52
0.99 1.35 1.44 0.85 0.52 0.61 1.25 1.54 1.25 1.19 1.18 1.19 1.31 1.40 1.28 1.21 1.30 1.44 1.61 1.74 1.81 1.84 1.84 1.81 1.71 1.49 1.36 1.19 0.99 0.79 0.65 0.58 0.61 0.57 0.48 0.44 0.48 0.54 0.52 0.49 0.50 0.50 0.49 0.48
1.16 1.49 1.57 0.72 0.54 0.83 1.05 0.89 0.86 0.88 0.93 0.98 1.02 1.03 1.09 1.11 1.15 1.24 1.41 1.58 1.66 1.65 1.63 1.53 1.42 1.30 1.21 1.07 0.83 0.65 0.59 0.57 0.59 0.56 0.39 0.35 0.44 0.47 0.46 0.50 0.49 0.45 0.44 0.42
1.34 1.53 1.14 0.68 0.65 0.66 0.69 0.73 0.71 0.75 0.73 0.77 0.84 0.92 1.04 1.15 1.19 1.22 1.22 1.32 1.36 1.29 1.20 1.18 1.15 1.07 0.99 0.84 0.67 0.57 0.56 0.60 0.58 0.53 0.42 0.34 0.38 0.41 0.43 0.46 0.42 0.35 0.35 0.36
1.17 1.19 0.93 0.69 0.62 0.59 0.53 0.52 0.57 0.70 0.70 0.67 0.68 0.71 0.82 0.90 1.00 1.07 1.04 1.03 1.04 1.01 0.93 0.90 0.90 0.85 0.75 0.61 0.55 0.56 0.59 0.59 0.57 0.52 0.43 0.36 0.34 0.31 0.33 0.35 0.34 0.31 0.33 0.35
1.24 1.23 1.04 0.86 0.71 0.61 0.56 0.56 0.61 0.64 0.59 0.54 0.50 0.51 0.56 0.67 0.75 0.81 0.79 0.74 0.74 0.78 0.75 0.67 0.65 0.65 0.59 0.50 0.46 0.53 0.53 0.49 0.46 0.40 0.39 0.38 0.31 0.21 0.21 0.22 0.21 0.25 0.30 0.29
1.34 1.15 1.07 0.94 0.73 0.59 0.57 0.56 0.52 0.47 0.44 0.45 0.45 0.44 0.48 0.57 0.63 0.66 0.64 0.61 0.64 0.68 0.65 0.59 0.57 0.55 0.49 0.41 0.39 0.47 0.49 0.46 0.40 0.35 0.34 0.31 0.33 0.26 0.17 0.15 0.14 0.13 0.16 0.16
0.84 0.70 0.71 0.68 0.61 0.60 0.51 0.43 0.41 0.38 0.35 0.37 0.38 0.37 0.39 0.44 0.45 0.46 0.50 0.52 0.58 0.59 0.56 0.51 0.51 0.53 0.50 0.42 0.36 0.39 0.42 0.39 0.34 0.30 0.30 0.30 0.33 0.36 0.33 0.21 0.14 0.13 0.13 0.14
0.60 0.61 0.65 0.55 0.46 0.41 0.35 0.32 0.31 0.28 0.29 0.31 0.31 0.29 0.30 0.34 0.35 0.39 0.44 0.44 0.45 0.42 0.42 0.41 0.38 0.40 0.42 0.36 0.29 0.25 0.25 0.23 0.22 0.25 0.26 0.27 0.27 0.27 0.29 0.30 0.30 0.27 0.19 0.16
0.54 0.50 0.50 0.38 0.28 0.28 0.27 0.23 0.25 0.28 0.27 0.28 0.26 0.23 0.22 0.29 0.34 0.35 0.34 0.33 0.35 0.34 0.32 0.34 0.33 0.30 0.31 0.28 0.23 0.19 0.18 0.20 0.19 0.21 0.23 0.23 0.21 0.21 0.22 0.26 0.28 0.29 0.26 0.20
0.42 0.34 0.27 0.25 0.25 0.25 0.25 0.23 0.23 0.25 0.24 0.25 0.23 0.21 0.20 0.24 0.29 0.29 0.26 0.24 0.28 0.27 0.24 0.27 0.28 0.23 0.23 0.21 0.19 0.18 0.14 0.11 0.12 0.14 0.16 0.16 0.15 0.16 0.16 0.19 0.23 0.27 0.27 0.23
0.39 0.34 0.30 0.26 0.22 0.21 0.22 0.24 0.20 0.17 0.17 0.21 0.21 0.18 0.18 0.23 0.27 0.26 0.23 0.22 0.22 0.19 0.18 0.19 0.20 0.18 0.19 0.18 0.13 0.11 0.10 0.07 0.07 0.08 0.09 0.10 0.08 0.09 0.11 0.14 0.20 0.24 0.23 0.20
0.29 0.25 0.24 0.24 0.17 0.15 0.17 0.17 0.16 0.14 0.12 0.14 0.15 0.17 0.19 0.23 0.24 0.20 0.18 0.15 0.15 0.15 0.14 0.13 0.14 0.16 0.17 0.15 0.10 0.07 0.06 0.06 0.06 0.06 0.06 0.05 0.05 0.06 0.09 0.13 0.15 0.18 0.20 0.21
0.19 0.17 0.18 0.17 0.13 0.13 0.14 0.13 0.11 0.08 0.07 0.11 0.15 0.18 0.21 0.20 0.17 0.14 0.14 0.12 0.12 0.14 0.13 0.10 0.12 0.14 0.15 0.12 0.09 0.06 0.05 0.05 0.06 0.06 0.04 0.04 0.04 0.06 0.09 0.10 0.12 0.14 0.16 0.21
0.14 0.13 0.13 0.13 0.12 0.12 0.10 0.07 0.06 0.06 0.08 0.12 0.13 0.14 0.18 0.16 0.13 0.11 0.13 0.14 0.12 0.09 0.08 0.08 0.09 0.11 0.11 0.09 0.06 0.04 0.03 0.04 0.06 0.06 0.04 0.04 0.04 0.05 0.05 0.07 0.09 0.11 0.14 0.19
0.13 0.12 0.12 0.11 0.11 0.09 0.08 0.06 0.07 0.08 0.10 0.11 0.09 0.09 0.11 0.11 0.10 0.10 0.12 0.14 0.12 0.08 0.06 0.07 0.07 0.07 0.07 0.06 0.04 0.03 0.03 0.04 0.04 0.04 0.04 0.04 0.04 0.04 0.05 0.06 0.07 0.08 0.11 0.14
0.16 0.16 0.13 0.12 0.10 0.09 0.09 0.08 0.07 0.07 0.08 0.08 0.07 0.08 0.09 0.10 0.11 0.11 0.11 0.10 0.09 0.07 0.05 0.05 0.05 0.04 0.04 0.03 0.03 0.03 0.03 0.03 0.02 0.02 0.02 0.02 0.03 0.04 0.04 0.05 0.06 0.06 0.08 0.10
0.18 0.17 0.14 0.11 0.11 0.11 0.11 0.08 0.07 0.07 0.08 0.07 0.06 0.07 0.09 0.10 0.11 0.12 0.10 0.07 0.05 0.06 0.06 0.05 0.04 0.03 0.03 0.03 0.03 0.03 0.02 0.02 0.03 0.02 0.02 0.02 0.02 0.03 0.03 0.03 0.04 0.05 0.06 0.07
0.20 0.18 0.13 0.11 0.11 0.16 0.15 0.12 0.11 0.10 0.09 0.08 0.07 0.07 0.07 0.09 0.10 0.09 0.08 0.08 0.07 0.07 0.05 0.04 0.04 0.03 0.03 0.03 0.03 0.03 0.02 0.02 0.02 0.02 0.02 0.02 0.02 0.03 0.03 0.03 0.03 0.04 0.05 0.05
0.25 0.22 0.16 0.15 0.18 0.18 0.14 0.12 0.11 0.11 0.09 0.08 0.07 0.07 0.07 0.07 0.07 0.06 0.06 0.06 0.07 0.06 0.04 0.04 0.04 0.04 0.03 0.03 0.03 0.02 0.02 0.03 0.03 0.03 0.02 0.03 0.03 0.03 0.03 0.03 0.03 0.03 0.04 0.04
0.34 0.30 0.23 0.20 0.19 0.16 0.13 0.12 0.12 0.12 0.09 0.08 0.08 0.07 0.06 0.06 0.05 0.05 0.05 0.05 0.04 0.05 0.04 0.05 0.04 0.04 0.03 0.03 0.03 0.03 0.03 0.04 0.03 0.03 0.03 0.03 0.03 0.02 0.03 0.03 0.03 0.03 0.04 0.04
0.40 0.33 0.27 0.19 0.15 0.12 0.12 0.14 0.12 0.11 0.10 0.09 0.09 0.07 0.06 0.05 0.04 0.03 0.04 0.03 0.03 0.03 0.04 0.05 0.05 0.04 0.03 0.03 0.03 0.03 0.03 0.03 0.03 0.03 0.03 0.03 0.02 0.02 0.03 0.03 0.03 0.04 0.04 0.04

GEFSNGP_prec_meanprecacc_216.txt.gz
Total_Precipitation_Accumulation
0.41 0.42 0.42 0.39 0.36 0.36 0.42 0.49 0.71 0.94 1.29 1.64 1.69 1.85 2.07 2.06 1.90 1.75 1.71 1.72 1.62 1.54 1.46 1.38 1.33 1.26 1.21 1.11 1.00 0.88 0.82 0.80 0.84 0.90 0.92 0.90 0.86 0.81 0.76 0.73 0.70 0.71 0.72 0.66
0.37 0.34 0.38 0.41 0.43 0.39 0.43 0.52 0.74 1.05 1.47 1.69 1.77 1.84 1.98 2.09 1.98 1.86 1.86 1.92 1.94 1.92 1.83 1.67 1.54 1.44 1.33 1.18 1.05 0.96 0.93 0.90 0.91 0.91 0.87 0.86 0.83 0.80 0.79 0.74 0.71 0.67 0.66 0.64
0.46 0.33 0.52 0.77 0.61 0.55 0.59 0.69 0.87 1.18 1.40 1.47 1.59 1.78 1.85 1.91 2.01 2.00 2.09 2.22 2.26 2.21 2.09 1.90 1.78 1.68 1.55 1.36 1.20 1.13 1.07 1.01 0.95 0.89 0.80 0.76 0.71 0.70 0.74 0.73 0.68 0.62 0.60 0.63
0.55 0.61 1.06 0.98 0.60 0.58 0.73 0.87 0.92 0.99 1.05 1.27 1.49 1.63 1.67 1.80 2.02 2.14 2.16 2.11 2.12 2.08 2.06 1.96 1.84 1.70 1.55 1.37 1.27 1.16 1.07 0.98 0.90 0.82 0.76 0.76 0.75 0.74 0.72 0.69 0.64 0.64 0.64 0.65
0.72 1.01 1.12 1.04 0.71 0.70 0.88 1.14 0.96 0.99 1.00 1.15 1.24 1.42 1.74 1.81 1.94 2.15 2.04 1.92 1.98 2.04 2.04 1.98 1.88 1.67 1.53 1.40 1.23 1.15 1.05 0.88 0.79 0.73 0.69 0.68 0.68 0.68 0.66 0.65 0.63 0.60 0.58 0.60
0.92 1.23 1.43 1.28 0.74 0.61 0.93 1.67 1.27 1.16 1.15 1.13 1.22 1.58 1.74 1.63 1.59 1.68 1.74 1.79 1.92 2.05 2.10 2.03 1.92 1.63 1.47 1.32 1.11 0.97 0.82 0.71 0.69 0.69 0.64 0.58 0.58 0.59 0.60 0.62 0.61 0.57 0.53 0.55
1.02 1.42 1.53 0.93 0.57 0.68 1.33 1.69 1.36 1.28 1.23 1.23 1.34 1.44 1.33 1.25 1.34 1.49 1.66 1.79 1.85 1.88 1.87 1.85 1.77 1.55 1.41 1.26 1.06 0.84 0.68 0.62 0.65 0.62 0.53 0.49 0.53 0.57 0.56 0.53 0.54 0.52 0.51 0.50
1.19 1.55 1.65 0.77 0.62 0.92 1.11 0.95 0.90 0.93 0.96 1.00 1.04 1.05 1.12 1.15 1.19 1.29 1.46 1.64 1.70 1.71 1.70 1.59 1.49 1.36 1.26 1.13 0.90 0.72 0.63 0.61 0.63 0.60 0.42 0.37 0.46 0.49 0.48 0.51 0.50 0.47 0.46 0.43
1.36 1.59 1.22 0.73 0.70 0.71 0.72 0.75 0.73 0.78 0.76 0.79 0.86 0.93 1.07 1.18 1.22 1.26 1.26 1.37 1.40 1.32 1.23 1.22 1.20 1.12 1.02 0.89 0.73 0.63 0.59 0.61 0.60 0.54 0.43 0.35 0.39 0.43 0.44 0.47 0.44 0.37 0.36 0.37
1.20 1.25 0.99 0.73 0.66 0.62 0.55 0.53 0.59 0.72 0.74 0.70 0.70 0.72 0.84 0.93 1.02 1.09 1.08 1.08 1.08 1.04 0.95 0.92 0.93 0.88 0.78 0.65 0.60 0.60 0.61 0.60 0.58 0.53 0.44 0.36 0.36 0.32 0.34 0.37 0.36 0.33 0.36 0.37
1.29 1.29 1.08 0.89 0.73 0.62 0.57 0.57 0.62 0.65 0.61 0.56 0.52 0.53 0.57 0.68 0.76 0.83 0.82 0.78 0.77 0.81 0.77 0.69 0.68 0.68 0.63 0.55 0.52 0.59 0.57 0.51 0.48 0.42 0.40 0.39 0.32 0.22 0.21 0.23 0.22 0.26 0.31 0.31
1.37 1.18 1.10 0.97 0.75 0.60 0.57 0.56 0.52 0.49 0.45 0.47 0.46 0.46 0.49 0.57 0.64 0.68 0.66 0.64 0.66 0.70 0.66 0.61 0.59 0.57 0.52 0.44 0.43 0.52 0.54 0.49 0.43 0.37 0.36 0.33 0.34 0.26 0.17 0.15 0.14 0.14 0.16 0.17
0.86 0.71 0.72 0.69 0.61 0.60 0.52 0.44 0.42 0.40 0.37 0.38 0.40 0.38 0.40 0.45 0.46 0.48 0.52 0.54 0.60 0.61 0.57 0.52 0.52 0.55 0.53 0.44 0.38 0.41 0.44 0.42 0.37 0.33 0.33 0.31 0.34 0.36 0.34 0.21 0.14 0.13 0.13 0.15
0.61 0.61 0.65 0.56 0.46 0.41 0.35 0.32 0.32 0.30 0.31 0.32 0.33 0.31 0.31 0.36 0.36 0.40 0.46 0.45 0.46 0.43 0.43 0.42 0.39 0.41 0.44 0.37 0.31 0.27 0.27 0.25 0.26 0.29 0.29 0.30 0.29 0.29 0.29 0.30 0.31 0.27 0.20 0.18
0.54 0.50 0.51 0.40 0.29 0.28 0.27 0.23 0.26 0.29 0.28 0.29 0.27 0.24 0.23 0.30 0.35 0.36 0.35 0.34 0.36 0.34 0.33 0.35 0.34 0.31 0.32 0.28 0.24 0.20 0.20 0.22 0.21 0.24 0.27 0.26 0.22 0.22 0.23 0.27 0.29 0.31 0.28 0.23
0.43 0.34 0.27 0.25 0.25 0.25 0.25 0.24 0.23 0.25 0.24 0.26 0.24 0.23 0.22 0.25 0.30 0.31 0.27 0.24 0.29 0.28 0.25 0.28 0.28 0.24 0.23 0.22 0.20 0.19 0.15 0.13 0.13 0.16 0.18 0.19 0.16 0.17 0.18 0.20 0.25 0.28 0.29 0.25
0.39 0.34 0.30 0.26 0.22 0.21 0.23 0.25 0.22 0.18 0.18 0.22 0.23 0.19 0.19 0.24 0.28 0.28 0.26 0.23 0.22 0.19 0.18 0.19 0.21 0.19 0.19 0.18 0.14 0.12 0.11 0.08 0.08 0.09 0.10 0.11 0.10 0.10 0.12 0.15 0.20 0.25 0.24 0.21
0.29 0.25 0.24 0.24 0.17 0.16 0.18 0.18 0.17 0.15 0.14 0.16 0.17 0.19 0.20 0.24 0.26 0.22 0.20 0.16 0.16 0.16 0.15 0.14 0.15 0.16 0.18 0.15 0.11 0.08 0.07 0.07 0.08 0.08 0.08 0.07 0.07 0.08 0.11 0.14 0.16 0.19 0.21 0.21
0.20 0.18 0.18 0.17 0.14 0.14 0.16 0.15 0.12 0.08 0.09 0.13 0.18 0.21 0.22 0.21 0.18 0.16 0.15 0.13 0.13 0.15 0.14 0.12 0.14 0.16 0.16 0.13 0.10 0.08 0.06 0.06 0.08 0.09 0.07 0.06 0.07 0.09 0.10 0.11 0.12 0.14 0.16 0.21
0.15 0.14 0.14 0.14 0.13 0.13 0.11 0.08 0.07 0.07 0.09 0.14 0.15 0.16 0.20 0.17 0.14 0.13 0.14 0.15 0.13 0.10 0.08 0.09 0.11 0.13 0.14 0.12 0.08 0.06 0.06 0.06 0.08 0.09 0.07 0.06 0.06 0.07 0.07 0.08 0.10 0.12 0.15 0.19
0.13 0.13 0.14 0.12 0.11 0.10 0.09 0.07 0.08 0.10 0.12 0.13 0.10 0.10 0.12 0.13 0.12 0.12 0.13 0.15 0.12 0.09 0.07 0.08 0.08 0.08 0.08 0.08 0.07 0.07 0.06 0.06 0.07 0.08 0.08 0.07 0.05 0.05 0.06 0.07 0.08 0.08 0.11 0.14
0.17 0.17 0.14 0.13 0.11 0.10 0.10 0.09 0.08 0.09 0.10 0.09 0.08 0.09 0.11 0.12 0.12 0.13 0.12 0.11 0.09 0.08 0.06 0.06 0.05 0.05 0.05 0.04 0.04 0.06 0.07 0.06 0.06 0.05 0.05 0.05 0.05 0.05 0.05 0.05 0.06 0.07 0.08 0.10
0.19 0.18 0.15 0.13 0.11 0.12 0.12 0.09 0.08 0.08 0.09 0.08 0.07 0.08 0.10 0.12 0.13 0.14 0.12 0.08 0.06 0.07 0.06 0.05 0.04 0.04 0.03 0.03 0.03 0.04 0.04 0.05 0.06 0.05 0.05 0.05 0.05 0.04 0.03 0.03 0.04 0.05 0.06 0.07
0.21 0.20 0.15 0.13 0.13 0.17 0.16 0.13 0.12 0.11 0.10 0.09 0.08 0.08 0.08 0.10 0.12 0.13 0.11 0.10 0.09 0.08 0.05 0.05 0.05 0.04 0.03 0.03 0.03 0.03 0.03 0.03 0.03 0.03 0.03 0.03 0.03 0.03 0.03 0.03 0.04 0.04 0.05 0.06
0.26 0.23 0.18 0.16 0.19 0.19 0.15 0.13 0.12 0.11 0.10 0.09 0.07 0.07 0.07 0.08 0.08 0.09 0.08 0.08 0.10 0.08 0.05 0.05 0.05 0.05 0.04 0.04 0.04 0.03 0.03 0.04 0.03 0.03 0.03 0.03 0.04 0.03 0.03 0.04 0.03 0.03 0.04 0.04
0.35 0.31 0.25 0.22 0.20 0.17 0.15 0.15 0.14 0.13 0.11 0.09 0.08 0.08 0.07 0.07 0.07 0.08 0.07 0.06 0.06 0.06 0.05 0.05 0.05 0.05 0.04 0.04 0.04 0.04 0.04 0.04 0.04 0.04 0.03 0.03 0.03 0.03 0.03 0.03 0.03 0.03 0.04 0.04
0.41 0.35 0.29 0.21 0.17 0.14 0.16 0.18 0.16 0.13 0.13 0.12 0.10 0.08 0.07 0.06 0.06 0.08 0.07 0.06 0.05 0.04 0.04 0.05 0.05 0.05 0.04 0.04 0.04 0.04 0.04 0.04 0.04 0.04 0.04 0.03 0.03 0.03 0.03 0.03 0.04 0.04 0.04 0.05

GEFSNGP_prec_meanprecacc_222.txt.gz
Total_Precipitation_Accumulation
0.42 0.44 0.43 0.40 0.36 0.36 0.44 0.50 0.72 0.96 1.32 1.70 1.75 1.91 2.10 2.09 1.92 1.76 1.73 1.73 1.64 1.57 1.51 1.44 1.39 1.31 1.25 1.15 1.05 0.93 0.88 0.84 0.87 0.92 0.95 0.93 0.90 0.85 0.80 0.77 0.74 0.75 0.76 0.71
0.38 0.36 0.40 0.42 0.44 0.41 0.45 0.55 0.76 1.07 1.51 1.74 1.83 1.88 2.01 2.11 2.00 1.87 1.87 1.94 1.95 1.94 1.85 1.71 1.59 1.48 1.35 1.21 1.08 0.99 0.97 0.94 0.95 0.94 0.90 0.88 0.86 0.83 0.81 0.77 0.73 0.70 0.69 0.68
0.47 0.34 0.53 0.80 0.63 0.58 0.64 0.74 0.91 1.21 1.43 1.51 1.64 1.83 1.88 1.94 2.04 2.02 2.11 2.24 2.28 2.22 2.11 1.93 1.81 1.71 1.57 1.38 1.22 1.16 1.12 1.04 0.98 0.91 0.83 0.79 0.74 0.72 0.75 0.75 0.70 0.64 0.62 0.65
0.56 0.63 1.10 1.02 0.62 0.61 0.77 0.92 0.96 1.01 1.07 1.29 1.53 1.66 1.70 1.84 2.07 2.19 2.20 2.13 2.15 2.11 2.08 1.98 1.87 1.73 1.57 1.40 1.30 1.20 1.11 1.02 0.93 0.84 0.78 0.77 0.77 0.76 0.73 0.71 0.66 0.65 0.65 0.65
0.74 1.02 1.14 1.07 0.73 0.74 0.92 1.18 0.99 1.00 1.01 1.16 1.26 1.43 1.77 1.85 1.99 2.21 2.08 1.95 2.01 2.06 2.05 2.00 1.90 1.70 1.55 1.43 1.27 1.19 1.09 0.92 0.82 0.76 0.70 0.69 0.70 0.69 0.67 0.68 0.65 0.61 0.60 0.61
0.93 1.25 1.45 1.31 0.77 0.64 0.96 1.71 1.30 1.18 1.16 1.14 1.23 1.61 1.76 1.65 1.65 1.74 1.79 1.83 1.95 2.06 2.11 2.04 1.93 1.64 1.49 1.35 1.16 1.01 0.85 0.73 0.71 0.71 0.65 0.60 0.59 0.60 0.60 0.63 0.63 0.58 0.54 0.57
1.05 1.46 1.55 0.96 0.60 0.70 1.37 1.75 1.41 1.30 1.25 1.24 1.35 1.46 1.36 1.28 1.40 1.55 1.73 1.83 1.87 1.89 1.89 1.87 1.80 1.58 1.43 1.29 1.10 0.88 0.71 0.64 0.66 0.63 0.54 0.50 0.55 0.59 0.56 0.54 0.55 0.53 0.52 0.53
1.21 1.57 1.67 0.79 0.63 0.93 1.14 0.98 0.94 0.95 0.97 1.01 1.06 1.07 1.14 1.17 1.22 1.32 1.49 1.66 1.71 1.72 1.71 1.62 1.52 1.40 1.29 1.15 0.93 0.76 0.66 0.63 0.65 0.62 0.43 0.39 0.48 0.51 0.50 0.53 0.52 0.48 0.48 0.46
1.38 1.62 1.26 0.76 0.73 0.72 0.74 0.77 0.75 0.80 0.78 0.81 0.87 0.94 1.07 1.19 1.24 1.28 1.27 1.38 1.41 1.33 1.24 1.23 1.21 1.13 1.04 0.91 0.76 0.66 0.62 0.63 0.61 0.55 0.45 0.38 0.43 0.46 0.48 0.51 0.48 0.41 0.40 0.39
1.21 1.28 1.02 0.77 0.69 0.65 0.57 0.55 0.61 0.74 0.75 0.70 0.71 0.73 0.84 0.93 1.03 1.11 1.09 1.09 1.10 1.05 0.96 0.92 0.93 0.88 0.79 0.66 0.61 0.61 0.63 0.61 0.60 0.55 0.46 0.38 0.39 0.37 0.40 0.43 0.42 0.38 0.38 0.39
1.30 1.31 1.11 0.91 0.75 0.65 0.59 0.58 0.63 0.66 0.62 0.57 0.53 0.53 0.57 0.68 0.77 0.84 0.83 0.79 0.79 0.83 0.78 0.71 0.68 0.68 0.64 0.55 0.53 0.61 0.60 0.54 0.51 0.45 0.43 0.41 0.33 0.24 0.24 0.26 0.25 0.29 0.34 0.33
1.39 1.19 1.11 0.98 0.76 0.61 0.59 0.58 0.54 0.50 0.46 0.48 0.47 0.46 0.49 0.58 0.65 0.68 0.67 0.65 0.68 0.71 0.68 0.64 0.61 0.58 0.52 0.45 0.44 0.53 0.57 0.54 0.47 0.40 0.39 0.36 0.36 0.28 0.19 0.16 0.15 0.15 0.18 0.18
0.87 0.71 0.72 0.69 0.62 0.61 0.53 0.45 0.44 0.41 0.37 0.39 0.40 0.39 0.41 0.45 0.46 0.49 0.53 0.55 0.61 0.63 0.59 0.54 0.54 0.56 0.53 0.45 0.39 0.42 0.46 0.45 0.41 0.38 0.36 0.34 0.35 0.37 0.35 0.22 0.14 0.14 0.14 0.15
0.61 0.62 0.66 0.56 0.47 0.41 0.35 0.33 0.32 0.30 0.31 0.32 0.33 0.31 0.32 0.36 0.37 0.41 0.47 0.47 0.48 0.45 0.45 0.43 0.40 0.42 0.44 0.38 0.32 0.28 0.28 0.26 0.28 0.32 0.32 0.33 0.31 0.30 0.30 0.31 0.31 0.28 0.21 0.18
0.54 0.50 0.51 0.40 0.30 0.29 0.27 0.24 0.26 0.29 0.28 0.29 0.27 0.24 0.24 0.31 0.36 0.37 0.36 0.36 0.38 0.35 0.34 0.36 0.34 0.32 0.32 0.29 0.24 0.21 0.21 0.23 0.22 0.25 0.29 0.28 0.26 0.26 0.26 0.29 0.31 0.31 0.28 0.23
0.43 0.34 0.27 0.25 0.25 0.25 0.25 0.24 0.24 0.26 0.24 0.26 0.25 0.23 0.22 0.26 0.31 0.33 0.28 0.26 0.30 0.28 0.25 0.28 0.29 0.24 0.24 0.22 0.20 0.19 0.16 0.13 0.14 0.16 0.19 0.21 0.19 0.20 0.21 0.23 0.27 0.30 0.30 0.25
0.40 0.34 0.30 0.26 0.22 0.21 0.23 0.25 0.22 0.19 0.19 0.22 0.23 0.20 0.20 0.24 0.29 0.29 0.28 0.23 0.23 0.20 0.19 0.20 0.21 0.19 0.19 0.18 0.14 0.12 0.11 0.08 0.08 0.09 0.11 0.12 0.12 0.12 0.15 0.18 0.23 0.27 0.25 0.22
0.29 0.25 0.25 0.24 0.17 0.16 0.18 0.18 0.17 0.15 0.14 0.16 0.18 0.19 0.21 0.25 0.26 0.23 0.21 0.17 0.16 0.16 0.16 0.14 0.15 0.17 0.18 0.16 0.11 0.08 0.07 0.07 0.08 0.09 0.08 0.08 0.08 0.10 0.13 0.15 0.17 0.21 0.22 0.22
0.20 0.18 0.18 0.18 0.14 0.14 0.16 0.15 0.12 0.08 0.09 0.14 0.18 0.21 0.23 0.22 0.20 0.17 0.15 0.14 0.14 0.16 0.15 0.13 0.15 0.16 0.17 0.14 0.11 0.08 0.06 0.06 0.09 0.10 0.08 0.08 0.09 0.11 0.12 0.12 0.13 0.15 0.17 0.21
0.15 0.14 0.14 0.14 0.14 0.14 0.12 0.08 0.07 0.07 0.10 0.15 0.15 0.16 0.21 0.19 0.16 0.14 0.14 0.15 0.13 0.11 0.08 0.09 0.12 0.14 0.15 0.14 0.10 0.07 0.06 0.07 0.10 0.11 0.08 0.08 0.08 0.09 0.09 0.10 0.12 0.13 0.16 0.20
0.14 0.13 0.14 0.13 0.12 0.10 0.09 0.08 0.09 0.11 0.12 0.13 0.11 0.11 0.14 0.15 0.13 0.14 0.14 0.15 0.12 0.09 0.07 0.08 0.08 0.08 0.09 0.09 0.08 0.09 0.09 0.09 0.08 0.09 0.09 0.09 0.08 0.08 0.09 0.10 0.10 0.10 0.12 0.14
0.17 0.17 0.14 0.13 0.11 0.10 0.10 0.09 0.09 0.09 0.10 0.10 0.09 0.10 0.12 0.14 0.14 0.14 0.13 0.11 0.10 0.08 0.06 0.06 0.06 0.05 0.05 0.04 0.04 0.06 0.08 0.09 0.08 0.07 0.07 0.08 0.09 0.09 0.08 0.08 0.08 0.08 0.09 0.10
0.20 0.19 0.16 0.13 0.12 0.12 0.12 0.09 0.08 0.09 0.09 0.08 0.08 0.09 0.11 0.14 0.15 0.16 0.13 0.08 0.07 0.08 0.07 0.06 0.05 0.04 0.04 0.03 0.03 0.04 0.04 0.05 0.06 0.06 0.06 0.06 0.06 0.06 0.06 0.05 0.06 0.07 0.07 0.07
0.23 0.23 0.17 0.14 0.14 0.18 0.16 0.13 0.13 0.12 0.11 0.10 0.09 0.09 0.09 0.11 0.13 0.14 0.12 0.11 0.10 0.09 0.06 0.07 0.07 0.05 0.05 0.04 0.04 0.04 0.03 0.03 0.03 0.03 0.04 0.05 0.05 0.05 0.05 0.05 0.05 0.05 0.06 0.06
0.27 0.25 0.19 0.18 0.20 0.20 0.16 0.14 0.13 0.12 0.11 0.09 0.08 0.09 0.08 0.08 0.09 0.10 0.09 0.09 0.10 0.09 0.06 0.06 0.06 0.06 0.05 0.04 0.04 0.04 0.03 0.04 0.04 0.03 0.03 0.04 0.05 0.04 0.04 0.05 0.05 0.04 0.04 0.04
0.37 0.32 0.26 0.23 0.21 0.18 0.16 0.16 0.15 0.14 0.11 0.09 0.09 0.08 0.08 0.07 0.07 0.09 0.07 0.07 0.07 0.07 0.05 0.06 0.06 0.05 0.04 0.04 0.04 0.04 0.04 0.05 0.04 0.04 0.04 0.04 0.04 0.03 0.04 0.04 0.04 0.04 0.04 0.05
0.43 0.36 0.30 0.22 0.17 0.15 0.17 0.19 0.17 0.14 0.14 0.12 0.11 0.09 0.07 0.07 0.07 0.08 0.08 0.07 0.07 0.06 0.05 0.07 0.07 0.06 0.05 0.04 0.04 0.04 0.04 0.04 0.04 0.04 0.04 0.05 0.04 0.04 0.04 0.04 0.04 0.04 0.04 0.05

GEFSNGP_prec_meanprecacc_228.txt.gz
Total_Precipitation_Accumulation
0.43 0.44 0.44 0.40 0.38 0.38 0.46 0.53 0.78 1.04 1.42 1.80 1.82 1.95 2.14 2.11 1.94 1.77 1.75 1.76 1.66 1.61 1.56 1.49 1.46 1.37 1.29 1.19 1.10 0.99 0.93 0.90 0.91 0.96 0.98 0.96 0.93 0.88 0.84 0.80 0.77 0.77 0.78 0.74
0.40 0.38 0.41 0.44 0.46 0.42 0.46 0.57 0.79 1.11 1.58 1.81 1.86 1.91 2.02 2.12 2.01 1.89 1.90 1.96 1.98 1.97 1.89 1.76 1.66 1.54 1.40 1.27 1.14 1.04 1.02 0.99 0.98 0.97 0.93 0.91 0.89 0.86 0.83 0.79 0.76 0.72 0.71 0.71
0.49 0.36 0.56 0.83 0.66 0.61 0.65 0.75 0.93 1.25 1.49 1.54 1.66 1.85 1.90 1.96 2.06 2.05 2.14 2.28 2.31 2.26 2.15 1.97 1.86 1.75 1.60 1.42 1.27 1.22 1.16 1.07 1.01 0.94 0.85 0.82 0.77 0.75 0.78 0.78 0.72 0.66 0.64 0.66
0.58 0.65 1.14 1.06 0.65 0.64 0.80 0.94 0.99 1.05 1.12 1.33 1.54 1.68 1.71 1.85 2.09 2.21 2.23 2.17 2.18 2.14 2.12 2.01 1.91 1.76 1.59 1.42 1.32 1.23 1.13 1.04 0.95 0.87 0.80 0.80 0.80 0.79 0.77 0.75 0.69 0.67 0.67 0.67
0.75 1.05 1.18 1.11 0.77 0.78 0.96 1.23 1.03 1.04 1.04 1.19 1.28 1.45 1.79 1.87 2.02 2.24 2.13 2.01 2.05 2.09 2.10 2.04 1.93 1.73 1.58 1.45 1.29 1.21 1.11 0.94 0.84 0.78 0.73 0.71 0.72 0.72 0.71 0.70 0.67 0.63 0.61 0.62
0.95 1.27 1.49 1.36 0.80 0.66 0.99 1.76 1.34 1.21 1.19 1.17 1.26 1.62 1.78 1.68 1.68 1.77 1.83 1.89 2.00 2.09 2.14 2.08 1.96 1.67 1.51 1.38 1.19 1.04 0.88 0.76 0.73 0.73 0.67 0.62 0.62 0.63 0.63 0.65 0.64 0.59 0.56 0.58
1.07 1.48 1.59 1.00 0.62 0.72 1.41 1.79 1.45 1.32 1.27 1.26 1.37 1.48 1.37 1.31 1.44 1.58 1.75 1.87 1.93 1.95 1.93 1.91 1.83 1.61 1.47 1.32 1.15 0.93 0.74 0.66 0.69 0.67 0.58 0.53 0.57 0.60 0.59 0.56 0.56 0.54 0.54 0.55
1.23 1.60 1.72 0.84 0.66 0.97 1.18 1.00 0.96 0.98 0.99 1.03 1.08 1.09 1.15 1.21 1.26 1.35 1.50 1.68 1.75 1.76 1.75 1.65 1.56 1.44 1.33 1.18 0.98 0.80 0.69 0.65 0.68 0.66 0.47 0.41 0.50 0.53 0.53 0.57 0.55 0.51 0.51 0.50
1.42 1.67 1.31 0.81 0.77 0.76 0.77 0.80 0.77 0.82 0.80 0.83 0.90 0.96 1.09 1.21 1.27 1.30 1.29 1.39 1.44 1.35 1.26 1.27 1.26 1.18 1.07 0.94 0.78 0.69 0.65 0.66 0.64 0.59 0.49 0.42 0.46 0.49 0.51 0.55 0.52 0.45 0.46 0.46
1.24 1.30 1.05 0.79 0.71 0.66 0.58 0.56 0.62 0.76 0.77 0.74 0.74 0.74 0.85 0.94 1.05 1.12 1.11 1.10 1.11 1.08 0.98 0.95 0.96 0.90 0.81 0.68 0.63 0.64 0.65 0.64 0.62 0.57 0.48 0.41 0.42 0.41 0.43 0.46 0.46 0.42 0.42 0.43
1.31 1.32 1.12 0.92 0.76 0.65 0.60 0.59 0.64 0.68 0.64 0.59 0.55 0.55 0.59 0.69 0.78 0.85 0.85 0.81 0.80 0.85 0.81 0.72 0.69 0.69 0.65 0.58 0.55 0.62 0.62 0.56 0.52 0.46 0.44 0.43 0.37 0.27 0.27 0.29 0.28 0.32 0.37 0.36
1.40 1.20 1.12 0.99 0.77 0.62 0.60 0.59 0.55 0.51 0.47 0.49 0.48 0.47 0.50 0.59 0.66 0.70 0.69 0.66 0.69 0.73 0.69 0.64 0.62 0.59 0.54 0.47 0.45 0.55 0.59 0.55 0.48 0.41 0.40 0.37 0.39 0.31 0.21 0.19 0.18 0.17 0.19 0.20
0.87 0.72 0.73 0.71 0.63 0.62 0.53 0.46 0.45 0.42 0.38 0.39 0.41 0.40 0.42 0.46 0.47 0.50 0.55 0.57 0.62 0.64 0.59 0.55 0.54 0.56 0.54 0.47 0.40 0.44 0.47 0.45 0.42 0.38 0.37 0.34 0.36 0.39 0.37 0.25 0.18 0.17 0.17 0.17
0.61 0.62 0.67 0.58 0.47 0.42 0.36 0.33 0.33 0.31 0.32 0.33 0.33 0.31 0.32 0.37 0.38 0.42 0.48 0.48 0.49 0.46 0.45 0.44 0.40 0.42 0.45 0.39 0.33 0.28 0.28 0.27 0.28 0.32 0.33 0.33 0.31 0.31 0.32 0.34 0.35 0.31 0.23 0.20
0.54 0.50 0.51 0.41 0.30 0.29 0.27 0.24 0.27 0.31 0.29 0.29 0.27 0.25 0.24 0.32 0.37 0.39 0.38 0.37 0.38 0.36 0.34 0.36 0.34 0.32 0.32 0.29 0.25 0.21 0.21 0.23 0.23 0.25 0.29 0.29 0.26 0.27 0.27 0.30 0.33 0.34 0.31 0.25
0.43 0.34 0.27 0.26 0.26 0.26 0.26 0.25 0.25 0.27 0.25 0.26 0.25 0.24 0.23 0.27 0.32 0.34 0.30 0.27 0.31 0.29 0.26 0.29 0.29 0.25 0.24 0.22 0.20 0.20 0.16 0.13 0.14 0.16 0.19 0.21 0.19 0.21 0.22 0.25 0.29 0.31 0.31 0.28
0.41 0.36 0.31 0.27 0.23 0.22 0.24 0.26 0.23 0.19 0.19 0.23 0.24 0.20 0.20 0.25 0.29 0.30 0.29 0.25 0.24 0.20 0.19 0.21 0.22 0.20 0.20 0.19 0.15 0.13 0.12 0.09 0.08 0.09 0.11 0.12 0.12 0.12 0.15 0.19 0.24 0.29 0.27 0.24
0.30 0.26 0.25 0.25 0.18 0.16 0.18 0.19 0.18 0.15 0.14 0.16 0.18 0.20 0.21 0.26 0.27 0.24 0.23 0.18 0.18 0.17 0.16 0.15 0.16 0.17 0.19 0.17 0.12 0.09 0.08 0.07 0.08 0.09 0.09 0.08 0.09 0.10 0.14 0.16 0.19 0.23 0.26 0.26
0.20 0.18 0.18 0.18 0.14 0.15 0.16 0.15 0.12 0.08 0.09 0.14 0.18 0.22 0.23 0.22 0.20 0.17 0.16 0.15 0.15 0.17 0.16 0.14 0.16 0.18 0.18 0.15 0.11 0.09 0.07 0.07 0.10 0.11 0.09 0.08 0.09 0.11 0.13 0.14 0.15 0.18 0.21 0.25
0.15 0.14 0.14 0.14 0.14 0.14 0.12 0.09 0.07 0.07 0.10 0.15 0.15 0.17 0.21 0.20 0.16 0.15 0.15 0.16 0.13 0.11 0.09 0.10 0.12 0.15 0.16 0.14 0.11 0.08 0.08 0.10 0.12 0.13 0.10 0.09 0.09 0.10 0.11 0.13 0.15 0.16 0.18 0.22
0.14 0.13 0.14 0.13 0.12 0.11 0.09 0.08 0.09 0.11 0.12 0.13 0.11 0.11 0.14 0.15 0.14 0.14 0.15 0.16 0.13 0.09 0.07 0.09 0.09 0.09 0.10 0.09 0.09 0.09 0.10 0.10 0.09 0.10 0.10 0.11 0.10 0.10 0.10 0.12 0.12 0.11 0.13 0.16
0.18 0.18 0.15 0.13 0.12 0.11 0.10 0.09 0.09 0.09 0.10 0.10 0.09 0.10 0.13 0.15 0.15 0.15 0.14 0.11 0.10 0.09 0.07 0.07 0.06 0.06 0.06 0.05 0.05 0.06 0.08 0.09 0.08 0.08 0.07 0.08 0.10 0.10 0.09 0.09 0.10 0.10 0.10 0.12
0.20 0.20 0.16 0.13 0.12 0.13 0.13 0.10 0.08 0.09 0.09 0.09 0.08 0.09 0.12 0.14 0.16 0.17 0.14 0.09 0.07 0.08 0.07 0.06 0.07 0.06 0.05 0.03 0.03 0.04 0.05 0.05 0.07 0.06 0.06 0.06 0.07 0.06 0.06 0.06 0.08 0.09 0.08 0.09
0.24 0.23 0.18 0.15 0.15 0.19 0.17 0.13 0.13 0.12 0.11 0.10 0.09 0.09 0.09 0.11 0.14 0.15 0.13 0.12 0.11 0.09 0.06 0.08 0.09 0.07 0.05 0.04 0.04 0.04 0.04 0.04 0.03 0.03 0.04 0.05 0.05 0.05 0.05 0.06 0.07 0.07 0.08 0.08
0.27 0.25 0.19 0.19 0.21 0.21 0.16 0.14 0.13 0.12 0.11 0.09 0.09 0.09 0.09 0.09 0.09 0.11 0.09 0.09 0.11 0.09 0.06 0.07 0.09 0.08 0.06 0.05 0.04 0.04 0.03 0.04 0.04 0.04 0.03 0.04 0.05 0.04 0.05 0.06 0.06 0.07 0.07 0.07
0.37 0.33 0.26 0.24 0.22 0.19 0.17 0.16 0.15 0.14 0.12 0.10 0.09 0.09 0.09 0.08 0.07 0.09 0.08 0.07 0.07 0.07 0.06 0.06 0.07 0.07 0.05 0.05 0.04 0.04 0.04 0.05 0.04 0.04 0.04 0.04 0.04 0.04 0.05 0.06 0.06 0.06 0.07 0.07
0.43 0.37 0.31 0.24 0.19 0.15 0.17 0.20 0.17 0.15 0.14 0.13 0.11 0.09 0.08 0.07 0.07 0.08 0.08 0.07 0.07 0.06 0.06 0.07 0.08 0.07 0.05 0.05 0.04 0.04 0.04 0.04 0.04 0.04 0.05 0.05 0.04 0.04 0.05 0.06 0.07 0.07 0.07 0.07

GEFSNGP_prec_meanprecacc_234.txt.gz
Total_Precipitation_Accumulation
0.45 0.46 0.44 0.41 0.39 0.39 0.47 0.57 0.87 1.15 1.53 1.87 1.86 1.98 2.18 2.16 1.98 1.82 1.79 1.78 1.68 1.65 1.64 1.56 1.52 1.41 1.32 1.21 1.14 1.04 1.01 0.98 1.00 1.06 1.07 1.03 1.01 0.96 0.90 0.85 0.81 0.81 0.82 0.77
0.41 0.39 0.43 0.46 0.48 0.44 0.49 0.61 0.86 1.19 1.65 1.85 1.90 1.94 2.05 2.15 2.03 1.91 1.91 1.98 2.00 2.00 1.94 1.83 1.72 1.58 1.44 1.31 1.17 1.08 1.08 1.06 1.05 1.04 0.99 0.97 0.96 0.92 0.88 0.83 0.80 0.77 0.75 0.73
0.51 0.38 0.59 0.89 0.73 0.65 0.68 0.78 0.96 1.29 1.52 1.56 1.69 1.88 1.92 1.99 2.09 2.07 2.17 2.30 2.34 2.30 2.20 2.02 1.91 1.82 1.65 1.46 1.31 1.26 1.22 1.12 1.07 0.99 0.91 0.88 0.81 0.79 0.82 0.82 0.77 0.71 0.68 0.69
0.61 0.69 1.19 1.14 0.74 0.71 0.84 0.99 1.04 1.11 1.15 1.35 1.56 1.71 1.74 1.89 2.11 2.24 2.26 2.20 2.22 2.19 2.17 2.07 1.96 1.82 1.64 1.47 1.37 1.27 1.17 1.06 0.99 0.92 0.86 0.84 0.83 0.82 0.81 0.80 0.74 0.72 0.71 0.70
0.78 1.09 1.23 1.17 0.82 0.84 1.04 1.33 1.13 1.11 1.09 1.22 1.30 1.48 1.83 1.90 2.04 2.26 2.16 2.05 2.09 2.15 2.14 2.09 1.97 1.77 1.61 1.48 1.33 1.25 1.14 0.96 0.87 0.82 0.77 0.74 0.76 0.78 0.77 0.76 0.73 0.68 0.66 0.67
0.98 1.31 1.53 1.42 0.83 0.69 1.06 1.87 1.44 1.27 1.23 1.20 1.29 1.67 1.83 1.73 1.70 1.79 1.86 1.94 2.05 2.15 2.19 2.12 2.00 1.71 1.55 1.41 1.23 1.09 0.92 0.80 0.76 0.76 0.71 0.68 0.68 0.69 0.69 0.70 0.69 0.64 0.61 0.64
1.10 1.51 1.63 1.04 0.64 0.74 1.48 1.90 1.51 1.37 1.30 1.30 1.43 1.53 1.43 1.37 1.48 1.62 1.78 1.91 1.98 2.00 1.97 1.95 1.88 1.65 1.52 1.36 1.20 0.98 0.78 0.70 0.73 0.71 0.64 0.60 0.62 0.65 0.63 0.60 0.61 0.59 0.58 0.60
1.27 1.64 1.76 0.86 0.69 1.01 1.25 1.07 1.03 1.05 1.05 1.07 1.11 1.11 1.19 1.25 1.32 1.40 1.53 1.70 1.80 1.81 1.79 1.69 1.60 1.48 1.36 1.23 1.02 0.83 0.72 0.68 0.72 0.71 0.52 0.44 0.54 0.57 0.57 0.61 0.59 0.56 0.56 0.55
1.45 1.71 1.35 0.84 0.80 0.79 0.81 0.85 0.82 0.88 0.85 0.86 0.92 0.98 1.11 1.26 1.32 1.35 1.32 1.43 1.48 1.40 1.31 1.32 1.31 1.21 1.11 1.01 0.85 0.73 0.69 0.70 0.69 0.63 0.53 0.46 0.50 0.53 0.57 0.60 0.57 0.50 0.50 0.50
1.26 1.33 1.07 0.81 0.72 0.67 0.59 0.58 0.64 0.79 0.82 0.79 0.78 0.77 0.88 0.99 1.11 1.17 1.14 1.13 1.14 1.11 1.02 0.98 0.99 0.94 0.86 0.75 0.70 0.70 0.73 0.72 0.70 0.64 0.52 0.45 0.47 0.45 0.47 0.50 0.49 0.44 0.44 0.45
1.33 1.34 1.14 0.94 0.77 0.66 0.60 0.59 0.65 0.69 0.68 0.64 0.58 0.59 0.62 0.74 0.83 0.89 0.88 0.83 0.83 0.88 0.84 0.74 0.71 0.70 0.68 0.62 0.59 0.67 0.68 0.61 0.58 0.51 0.49 0.47 0.40 0.30 0.29 0.30 0.29 0.33 0.39 0.38
1.42 1.22 1.13 1.01 0.78 0.63 0.60 0.60 0.56 0.53 0.50 0.52 0.51 0.51 0.53 0.63 0.71 0.74 0.72 0.69 0.72 0.76 0.73 0.67 0.64 0.61 0.57 0.49 0.48 0.57 0.61 0.57 0.50 0.43 0.43 0.40 0.42 0.32 0.22 0.19 0.18 0.18 0.20 0.21
0.90 0.75 0.75 0.72 0.64 0.63 0.54 0.47 0.46 0.43 0.39 0.40 0.41 0.41 0.43 0.49 0.52 0.53 0.58 0.60 0.65 0.66 0.62 0.57 0.57 0.58 0.57 0.49 0.43 0.46 0.49 0.46 0.43 0.39 0.38 0.36 0.39 0.41 0.38 0.25 0.18 0.18 0.18 0.18
0.64 0.65 0.70 0.59 0.48 0.42 0.36 0.33 0.34 0.31 0.33 0.33 0.33 0.32 0.33 0.39 0.41 0.44 0.51 0.51 0.52 0.48 0.47 0.45 0.42 0.44 0.46 0.40 0.35 0.29 0.29 0.28 0.29 0.33 0.34 0.34 0.33 0.32 0.33 0.35 0.35 0.31 0.24 0.21
0.56 0.52 0.54 0.42 0.31 0.29 0.28 0.25 0.28 0.32 0.30 0.30 0.27 0.25 0.25 0.33 0.39 0.41 0.39 0.39 0.40 0.38 0.36 0.37 0.35 0.33 0.33 0.30 0.26 0.22 0.22 0.24 0.23 0.25 0.29 0.29 0.27 0.27 0.28 0.31 0.34 0.34 0.31 0.26
0.45 0.36 0.29 0.28 0.27 0.27 0.26 0.25 0.25 0.28 0.26 0.27 0.25 0.24 0.23 0.28 0.33 0.35 0.31 0.28 0.32 0.30 0.27 0.29 0.30 0.25 0.24 0.23 0.21 0.21 0.17 0.14 0.15 0.17 0.20 0.22 0.20 0.22 0.23 0.26 0.29 0.32 0.32 0.28
0.42 0.37 0.32 0.29 0.24 0.23 0.25 0.27 0.24 0.20 0.20 0.23 0.24 0.21 0.21 0.25 0.30 0.32 0.30 0.26 0.25 0.21 0.20 0.21 0.23 0.20 0.21 0.20 0.16 0.13 0.12 0.09 0.09 0.10 0.12 0.13 0.12 0.13 0.16 0.19 0.24 0.29 0.28 0.25
0.31 0.27 0.26 0.27 0.20 0.18 0.20 0.20 0.19 0.16 0.14 0.16 0.18 0.20 0.21 0.26 0.29 0.27 0.25 0.19 0.19 0.18 0.17 0.15 0.16 0.18 0.20 0.18 0.13 0.10 0.08 0.07 0.09 0.10 0.09 0.08 0.09 0.11 0.14 0.16 0.19 0.24 0.27 0.27
0.20 0.18 0.19 0.20 0.16 0.16 0.19 0.16 0.13 0.09 0.09 0.14 0.18 0.22 0.24 0.23 0.22 0.20 0.18 0.16 0.16 0.17 0.16 0.14 0.17 0.18 0.19 0.16 0.12 0.09 0.07 0.07 0.10 0.11 0.10 0.09 0.10 0.12 0.13 0.14 0.16 0.19 0.22 0.26
0.16 0.15 0.15 0.15 0.14 0.15 0.14 0.09 0.08 0.07 0.10 0.15 0.16 0.17 0.22 0.20 0.18 0.16 0.16 0.16 0.14 0.11 0.09 0.10 0.13 0.16 0.17 0.15 0.12 0.09 0.09 0.11 0.13 0.13 0.10 0.10 0.10 0.11 0.12 0.13 0.15 0.16 0.18 0.22
0.14 0.14 0.16 0.14 0.13 0.12 0.10 0.08 0.09 0.11 0.12 0.13 0.11 0.11 0.15 0.16 0.14 0.15 0.16 0.16 0.13 0.10 0.07 0.09 0.09 0.09 0.10 0.09 0.09 0.09 0.10 0.10 0.10 0.11 0.11 0.12 0.11 0.10 0.11 0.13 0.13 0.12 0.14 0.17
0.18 0.19 0.17 0.16 0.14 0.12 0.11 0.09 0.09 0.09 0.10 0.10 0.09 0.10 0.13 0.15 0.15 0.16 0.15 0.12 0.10 0.09 0.07 0.07 0.07 0.07 0.06 0.05 0.05 0.06 0.08 0.09 0.09 0.08 0.08 0.09 0.11 0.11 0.10 0.10 0.11 0.11 0.11 0.13
0.21 0.21 0.18 0.16 0.15 0.15 0.13 0.10 0.08 0.09 0.09 0.09 0.08 0.09 0.12 0.15 0.16 0.19 0.16 0.10 0.08 0.09 0.07 0.06 0.07 0.07 0.05 0.04 0.04 0.04 0.05 0.06 0.07 0.07 0.07 0.07 0.08 0.08 0.07 0.07 0.09 0.10 0.10 0.10
0.25 0.24 0.18 0.16 0.17 0.21 0.19 0.14 0.13 0.12 0.11 0.10 0.09 0.09 0.10 0.12 0.15 0.16 0.14 0.12 0.11 0.10 0.07 0.08 0.10 0.08 0.06 0.04 0.04 0.04 0.04 0.04 0.03 0.03 0.04 0.06 0.06 0.06 0.06 0.06 0.07 0.08 0.09 0.09
0.30 0.27 0.20 0.20 0.24 0.23 0.18 0.15 0.13 0.13 0.11 0.10 0.09 0.09 0.09 0.10 0.10 0.12 0.12 0.10 0.11 0.09 0.06 0.07 0.10 0.08 0.06 0.05 0.05 0.04 0.04 0.05 0.05 0.04 0.04 0.04 0.05 0.05 0.06 0.07 0.07 0.07 0.08 0.08
0.40 0.35 0.28 0.25 0.24 0.20 0.17 0.17 0.17 0.15 0.12 0.10 0.09 0.09 0.09 0.09 0.09 0.10 0.08 0.08 0.08 0.08 0.06 0.06 0.07 0.07 0.06 0.05 0.04 0.04 0.05 0.06 0.06 0.05 0.05 0.05 0.05 0.05 0.06 0.07 0.07 0.07 0.07 0.08
0.46 0.39 0.32 0.25 0.20 0.17 0.18 0.21 0.18 0.16 0.16 0.14 0.12 0.10 0.08 0.08 0.09 0.10 0.09 0.08 0.08 0.07 0.06 0.08 0.09 0.08 0.06 0.05 0.04 0.05 0.05 0.05 0.05 0.05 0.06 0.06 0.05 0.05 0.06 0.07 0.07 0.08 0.08 0.08

GEFSNGP_prec_meanprecacc_240.txt.gz
Total_Precipitation_Accumulation
0.47 0.47 0.45 0.42 0.40 0.40 0.48 0.58 0.89 1.18 1.57 1.92 1.88 2.02 2.25 2.22 2.02 1.84 1.82 1.81 1.71 1.68 1.66 1.60 1.55 1.43 1.33 1.22 1.16 1.06 1.03 1.00 1.02 1.09 1.11 1.07 1.05 1.01 0.95 0.89 0.85 0.84 0.84 0.79
0.44 0.40 0.43 0.47 0.50 0.46 0.50 0.63 0.90 1.24 1.73 1.89 1.92 1.98 2.09 2.19 2.08 1.93 1.94 2.01 2.03 2.02 1.97 1.87 1.77 1.62 1.46 1.33 1.19 1.10 1.10 1.07 1.07 1.07 1.02 1.01 1.01 0.97 0.93 0.88 0.84 0.81 0.78 0.75
0.54 0.39 0.60 0.91 0.78 0.70 0.71 0.79 1.01 1.32 1.56 1.59 1.70 1.89 1.95 2.04 2.17 2.12 2.20 2.33 2.38 2.33 2.24 2.07 1.96 1.86 1.68 1.48 1.33 1.28 1.23 1.14 1.09 1.02 0.94 0.90 0.84 0.83 0.87 0.86 0.80 0.74 0.71 0.71
0.63 0.71 1.23 1.20 0.80 0.75 0.86 1.00 1.07 1.13 1.16 1.36 1.58 1.73 1.79 1.99 2.24 2.29 2.29 2.23 2.26 2.22 2.21 2.10 1.99 1.86 1.69 1.49 1.38 1.28 1.18 1.08 1.01 0.96 0.90 0.89 0.87 0.86 0.84 0.83 0.76 0.74 0.73 0.72
0.81 1.13 1.29 1.24 0.86 0.87 1.06 1.34 1.15 1.13 1.11 1.25 1.35 1.55 1.89 1.97 2.09 2.31 2.18 2.07 2.12 2.17 2.17 2.12 2.01 1.81 1.64 1.50 1.34 1.27 1.16 0.99 0.90 0.85 0.80 0.77 0.80 0.81 0.79 0.78 0.74 0.69 0.68 0.68
1.00 1.34 1.58 1.46 0.86 0.70 1.08 1.91 1.47 1.31 1.27 1.28 1.41 1.80 1.92 1.78 1.75 1.84 1.89 1.97 2.07 2.16 2.21 2.14 2.02 1.73 1.57 1.42 1.25 1.11 0.94 0.81 0.78 0.79 0.74 0.71 0.71 0.71 0.70 0.70 0.70 0.64 0.62 0.65
1.12 1.54 1.67 1.07 0.67 0.75 1.50 1.94 1.58 1.46 1.36 1.39 1.56 1.69 1.54 1.46 1.54 1.66 1.81 1.93 2.00 2.00 1.99 1.97 1.89 1.66 1.53 1.37 1.21 0.99 0.79 0.71 0.75 0.74 0.67 0.63 0.64 0.66 0.64 0.61 0.62 0.59 0.59 0.61
1.29 1.67 1.79 0.89 0.71 1.04 1.32 1.16 1.13 1.14 1.09 1.12 1.19 1.21 1.25 1.31 1.36 1.42 1.54 1.72 1.81 1.83 1.81 1.71 1.61 1.49 1.37 1.24 1.04 0.84 0.73 0.69 0.73 0.73 0.54 0.46 0.56 0.58 0.58 0.62 0.60 0.58 0.58 0.57
1.47 1.74 1.40 0.87 0.83 0.82 0.89 0.93 0.89 0.93 0.89 0.90 0.96 1.02 1.14 1.30 1.36 1.38 1.34 1.45 1.50 1.42 1.33 1.35 1.33 1.22 1.12 1.03 0.86 0.74 0.70 0.71 0.70 0.64 0.54 0.47 0.52 0.54 0.58 0.62 0.59 0.52 0.53 0.52
1.29 1.38 1.13 0.86 0.77 0.71 0.62 0.61 0.66 0.81 0.84 0.82 0.81 0.79 0.91 1.04 1.14 1.20 1.17 1.15 1.16 1.12 1.04 1.00 1.01 0.96 0.88 0.76 0.72 0.72 0.74 0.73 0.71 0.65 0.54 0.46 0.48 0.46 0.48 0.51 0.51 0.46 0.46 0.47
1.36 1.37 1.17 0.99 0.82 0.70 0.62 0.60 0.66 0.70 0.69 0.65 0.60 0.61 0.64 0.76 0.85 0.90 0.91 0.86 0.84 0.89 0.86 0.75 0.73 0.72 0.70 0.64 0.62 0.70 0.71 0.65 0.62 0.54 0.51 0.48 0.42 0.31 0.30 0.31 0.31 0.35 0.40 0.39
1.44 1.24 1.17 1.06 0.82 0.65 0.62 0.62 0.58 0.54 0.51 0.54 0.52 0.52 0.54 0.65 0.73 0.76 0.76 0.72 0.74 0.78 0.74 0.68 0.66 0.62 0.57 0.51 0.51 0.60 0.65 0.61 0.54 0.48 0.46 0.43 0.44 0.34 0.25 0.22 0.20 0.19 0.21 0.21
0.91 0.78 0.78 0.74 0.66 0.64 0.55 0.48 0.47 0.44 0.40 0.41 0.42 0.41 0.44 0.52 0.54 0.56 0.61 0.63 0.68 0.69 0.64 0.59 0.58 0.59 0.58 0.51 0.46 0.49 0.53 0.52 0.48 0.44 0.41 0.39 0.41 0.43 0.39 0.27 0.19 0.19 0.18 0.19
0.66 0.67 0.73 0.61 0.49 0.43 0.37 0.34 0.35 0.32 0.33 0.34 0.34 0.32 0.34 0.40 0.43 0.47 0.54 0.55 0.55 0.51 0.48 0.46 0.43 0.44 0.46 0.41 0.37 0.32 0.33 0.32 0.33 0.37 0.37 0.36 0.33 0.33 0.34 0.36 0.36 0.31 0.24 0.21
0.57 0.53 0.55 0.43 0.31 0.30 0.29 0.26 0.29 0.33 0.31 0.31 0.27 0.25 0.25 0.34 0.41 0.43 0.41 0.43 0.44 0.40 0.38 0.39 0.36 0.33 0.33 0.31 0.28 0.25 0.26 0.28 0.26 0.27 0.30 0.30 0.27 0.28 0.29 0.32 0.34 0.34 0.31 0.26
0.46 0.37 0.31 0.29 0.27 0.27 0.28 0.27 0.27 0.29 0.28 0.28 0.26 0.24 0.24 0.29 0.36 0.37 0.34 0.34 0.36 0.32 0.29 0.31 0.32 0.26 0.25 0.23 0.22 0.21 0.18 0.15 0.16 0.18 0.21 0.23 0.21 0.23 0.24 0.26 0.30 0.32 0.32 0.28
0.43 0.39 0.34 0.32 0.26 0.24 0.26 0.29 0.26 0.22 0.21 0.24 0.25 0.21 0.21 0.26 0.33 0.35 0.35 0.31 0.28 0.23 0.21 0.22 0.24 0.21 0.21 0.21 0.17 0.14 0.13 0.11 0.11 0.12 0.14 0.15 0.14 0.15 0.17 0.20 0.25 0.30 0.28 0.25
0.31 0.28 0.28 0.29 0.21 0.19 0.21 0.21 0.21 0.18 0.15 0.17 0.19 0.21 0.22 0.28 0.32 0.31 0.29 0.21 0.20 0.19 0.18 0.17 0.17 0.19 0.20 0.19 0.14 0.11 0.09 0.09 0.11 0.13 0.13 0.11 0.11 0.12 0.15 0.17 0.20 0.24 0.27 0.27
0.21 0.20 0.20 0.22 0.18 0.18 0.21 0.18 0.15 0.11 0.10 0.15 0.19 0.23 0.25 0.25 0.24 0.23 0.20 0.18 0.17 0.19 0.18 0.16 0.19 0.19 0.20 0.17 0.13 0.10 0.09 0.09 0.11 0.13 0.12 0.11 0.12 0.14 0.15 0.15 0.17 0.19 0.22 0.26
0.16 0.16 0.17 0.17 0.16 0.17 0.16 0.10 0.09 0.09 0.11 0.16 0.16 0.17 0.22 0.21 0.19 0.19 0.18 0.18 0.15 0.12 0.10 0.11 0.14 0.16 0.17 0.16 0.12 0.09 0.10 0.11 0.13 0.13 0.11 0.10 0.11 0.12 0.13 0.15 0.17 0.19 0.20 0.23
0.16 0.16 0.17 0.16 0.14 0.14 0.11 0.09 0.10 0.12 0.14 0.14 0.12 0.12 0.15 0.17 0.16 0.18 0.18 0.18 0.15 0.10 0.08 0.10 0.10 0.10 0.11 0.10 0.10 0.10 0.11 0.10 0.10 0.11 0.11 0.12 0.12 0.12 0.14 0.15 0.15 0.15 0.16 0.18
0.20 0.22 0.19 0.17 0.15 0.14 0.13 0.11 0.10 0.10 0.11 0.11 0.10 0.11 0.14 0.16 0.16 0.18 0.16 0.14 0.12 0.11 0.08 0.08 0.07 0.07 0.07 0.05 0.05 0.07 0.09 0.09 0.09 0.08 0.08 0.10 0.12 0.13 0.12 0.13 0.14 0.13 0.13 0.15
0.24 0.23 0.20 0.19 0.18 0.17 0.15 0.11 0.09 0.10 0.10 0.09 0.09 0.10 0.13 0.15 0.17 0.20 0.17 0.13 0.10 0.10 0.08 0.07 0.08 0.07 0.05 0.04 0.04 0.04 0.05 0.06 0.07 0.07 0.07 0.07 0.08 0.08 0.08 0.08 0.10 0.12 0.12 0.12
0.28 0.27 0.21 0.20 0.21 0.26 0.23 0.15 0.14 0.13 0.12 0.11 0.10 0.10 0.11 0.13 0.16 0.17 0.16 0.14 0.12 0.11 0.08 0.09 0.11 0.08 0.06 0.04 0.04 0.04 0.05 0.04 0.04 0.04 0.05 0.06 0.07 0.07 0.07 0.08 0.09 0.10 0.11 0.10
0.33 0.30 0.23 0.23 0.27 0.28 0.23 0.18 0.16 0.15 0.13 0.12 0.10 0.11 0.10 0.11 0.12 0.13 0.14 0.12 0.13 0.11 0.08 0.09 0.11 0.09 0.07 0.05 0.05 0.04 0.04 0.06 0.06 0.05 0.04 0.05 0.07 0.06 0.07 0.09 0.08 0.09 0.09 0.10
0.43 0.39 0.32 0.29 0.27 0.25 0.23 0.21 0.21 0.19 0.16 0.14 0.13 0.13 0.13 0.12 0.11 0.12 0.11 0.12 0.10 0.09 0.07 0.08 0.09 0.09 0.07 0.06 0.05 0.06 0.06 0.07 0.07 0.07 0.06 0.05 0.05 0.06 0.07 0.09 0.09 0.09 0.09 0.10
0.48 0.41 0.35 0.28 0.23 0.20 0.23 0.25 0.22 0.19 0.19 0.17 0.15 0.13 0.14 0.14 0.11 0.12 0.12 0.11 0.11 0.09 0.09 0.11 0.11 0.11 0.08 0.06 0.06 0.05 0.05 0.06 0.06 0.06 0.07 0.07 0.06 0.06 0.07 0.09 0.09 0.10 0.10 0.10